Home   Weather   Whitstable   Past weeks

Flag for United Kingdom Past Weather in Whitstable, England, United Kingdom — Yesterday and Last 2 Weeks

Now
60 °F

Cool.


Feels Like: 60 °F
Forecast: 59 / 75 °F
Wind: 5 mph from South

Location: Manston

Current Time: Aug 30, 2016 at 10:29:35 AM

Latest Report: Aug 30, 2016 at 9:00 AM


Visibility: 7 mi

Pressure: 30.30 "Hg

Humidity: 96%

Dew Point: 59 °F

Location of WhitstableLocation

Past Weather in Whitstable — Graph

°F

Whitstable Temperature Yesterday

Maximum temperature yesterday: 71 °F (at 5:00 PM)
Minimum temperature yesterday: 59 °F (at 11:00 PM)
Average temperature yesterday: 64 °F

High & Low Weather Summary for the Past Weeks

 TemperatureHumidityPressure
High87 °F (Aug 24, 2:00 PM)100% (Aug 19, 4:00 AM)30.29 "Hg (Aug 19, 4:00 AM)
Low56 °F (Aug 30, 6:00 AM)43% (Aug 24, 2:00 PM)29.72 "Hg (Aug 19, 4:00 PM)
Average66 °F78%30.01 "Hg
* Reported Aug 15 8:00 AM — Aug 30 8:00 AM, Whitstable, Weather by CustomWeather, © 2016

Note: Actual official high and low records may vary slightly from our data, if they occured in-between our weather recording intervals... More about our weather records

Advertising

Whitstable Weather History for the Previous 24 Hours

Scroll right to see more
 ConditionsComfort  
Time TempWeatherWind HumidityBarometerVisibility
8:00 AM
Tue, Aug 30
57 °FDuststorm.7 mph99%30.29 "Hg1 mi
7:00 AM57 °FFog.7 mph100%30.29 "Hg4 mi
6:00 AM56 °FCool.7 mph99%30.28 "Hg3 mi
5:00 AM57 °FDuststorm.7 mph100%30.27 "Hg1 mi
4:00 AM57 °FDuststorm.7 mph100%30.27 "Hg0 mi
3:00 AM58 °FFog.5 mph98%30.28 "Hg2 mi
2:00 AM58 °FFog.6 mph97%30.27 "Hg2 mi
1:00 AM59 °FFog.8 mph95%30.28 "Hg3 mi
12:00 AM59 °FCool.8 mph92%30.28 "Hg7 mi
11:00 PM
Mon, Aug 29
59 °FCool.8 mph88%30.27 "Hg22 mi
10:00 PM59 °FCool.8 mph85%30.27 "Hg25 mi
9:00 PM61 °FCool.8 mph83%30.26 "Hg25 mi
8:00 PM62 °FCool.7 mph76%30.24 "Hg31 mi
7:00 PM64 °FMild.8 mph73%30.23 "Hg28 mi
6:00 PM67 °FMild.9 mph68%30.22 "Hg31 mi
5:00 PM71 °FMild.5 mph48%30.22 "Hg25 mi
4:00 PM70 °FMild.6 mph52%30.21 "Hg25 mi
3:00 PM69 °FMild.6 mph60%30.20 "Hg17 mi
2:00 PM68 °FMild.8 mph63%30.20 "Hg25 mi
1:00 PM66 °FMild.10 mph63%30.20 "Hg25 mi
12:00 PM67 °FMild.10 mph66%30.19 "Hg28 mi
11:00 AM64 °FMild.12 mph72%30.18 "Hg31 mi
10:00 AM64 °FMild.13 mph73%30.16 "Hg25 mi
Weather by CustomWeather, © 2016

See weather overviewHow to use our weather pages